Location: Asheville, NC
(35.6000°N, 82.5500°W)
Time: 03:54:47
(UTC-04:00)

ISS - Pass Details

Date: 12 October 2017
Orbit: 401 x 408 km, 51.6° (Epoch: 18 October)

Event Time Altitude Azimuth Distance (km) Brightness Sun altitude
Rises 21:10:19 0° 310° (NW) 2,320 0.9 -27.6°
Reaches altitude 10° 21:12:24 10° 309° (NW) 1,459 -0.3 -28.0°
Enters shadow 21:13:12 16° 308° (NW) 1,138 -0.9 -28.1°
